• In Belarus
  • List of Countries
  • For 7 days
  • Water Temperature
  • Satellite Maps
  • Weather Map
  • Weather Widgets
  • user-avatar
    Login

    Hourly Weather Kleymenovo

    Today, 23 September, Sunday

    Time Temperature Precipitation Wind Pressure Humidity
    00:00 +19°C° 0 mm 5 mps 737 mmHg 56%
    01:00 +17°C° 0 mm 5 mps 737 mmHg 59%
    02:00 +17°C° 0 mm 4 mps 736 mmHg 62%
    03:00 +15°C° 0.3 mm 4 mps 736 mmHg 68%
    04:00 +14°C° 0.3 mm 5 mps 737 mmHg 75%
    05:00 +13°C° 0.3 mm 6 mps 737 mmHg 82%
    06:00 +10°C° 0.8 mm 6 mps 737 mmHg 83%
    07:00 +9°C° 0.8 mm 5 mps 737 mmHg 85%
    08:00 +8°C° 0 mm 5 mps 737 mmHg 86%
    09:00 +8°C° 0.2 mm 5 mps 738 mmHg 84%
    10:00 +9°C° 0.2 mm 5 mps 738 mmHg 82%
    11:00 +10°C° 0.2 mm 4 mps 739 mmHg 80%
    12:00 +11°C° 0 mm 4 mps 739 mmHg 77%
    13:00 +11°C° 0 mm 4 mps 739 mmHg 75%
    14:00 +12°C° 0 mm 4 mps 739 mmHg 73%
    15:00 +12°C° 0 mm 3 mps 739 mmHg 73%
    16:00 +12°C° 0 mm 3 mps 739 mmHg 74%
    17:00 +12°C° 0 mm 2 mps 739 mmHg 74%
    18:00 +12°C° 0 mm 2 mps 739 mmHg 78%
    19:00 +10°C° 0 mm 3 mps 739 mmHg 82%
    20:00 +9°C° 0 mm 3 mps 739 mmHg 86%
    21:00 +8°C° 0 mm 3 mps 739 mmHg 87%
    22:00 +8°C° 0 mm 3 mps 739 mmHg 88%
    23:00 +8°C° 0 mm 3 mps 739 mmHg 90%

    Tomorrow, 24 September, Monday

    Time Temperature Precipitation Wind Pressure Humidity
    00:00 +8°C° 0 mm 3 mps 739 mmHg 90%
    01:00 +7°C° 0 mm 3 mps 739 mmHg 90%
    02:00 +7°C° 0 mm 3 mps 739 mmHg 91%
    03:00 +7°C° 0 mm 3 mps 739 mmHg 89%
    04:00 +7°C° 0 mm 3 mps 738 mmHg 88%
    05:00 +7°C° 0 mm 3 mps 738 mmHg 87%
    06:00 +8°C° 0 mm 3 mps 738 mmHg 83%
    07:00 +8°C° 0 mm 4 mps 738 mmHg 80%
    08:00 +10°C° 0 mm 4 mps 738 mmHg 76%
    09:00 +9°C° 0.3 mm 5 mps 737 mmHg 76%
    10:00 +10°C° 0.3 mm 6 mps 737 mmHg 75%
    11:00 +10°C° 0.3 mm 7 mps 736 mmHg 75%
    12:00 +10°C° 1 mm 8 mps 735 mmHg 78%
    13:00 +9°C° 1 mm 8 mps 734 mmHg 81%
    14:00 +8°C° 1 mm 9 mps 733 mmHg 84%
    15:00 +8°C° 2.1 mm 9 mps 732 mmHg 85%
    16:00 +10°C° 2.1 mm 9 mps 731 mmHg 86%
    17:00 +10°C° 2.1 mm 9 mps 729 mmHg 87%
    18:00 +10°C° 0.7 mm 9 mps 729 mmHg 87%
    19:00 +11°C° 0.7 mm 9 mps 728 mmHg 86%
    20:00 +11°C° 0.7 mm 9 mps 727 mmHg 86%
    21:00 +10°C° 0.1 mm 9 mps 727 mmHg 85%
    22:00 +8°C° 0.1 mm 9 mps 727 mmHg 84%
    23:00 +7°C° 0.1 mm 9 mps 727 mmHg 83%

    Day after tomorrow, 25 September, Tuesday

    Time Temperature Precipitation Wind Pressure Humidity
    00:00 +6°C° 0 mm 9 mps 727 mmHg 82%
    01:00 +6°C° 0 mm 9 mps 728 mmHg 81%
    02:00 +6°C° 0 mm 9 mps 728 mmHg 81%
    03:00 +6°C° 0 mm 9 mps 728 mmHg 81%
    04:00 +6°C° 0 mm 9 mps 729 mmHg 82%
    05:00 +6°C° 0 mm 9 mps 729 mmHg 82%
    06:00 +6°C° 0.1 mm 9 mps 730 mmHg 82%
    07:00 +6°C° 0.1 mm 8 mps 731 mmHg 81%
    08:00 +6°C° 0.1 mm 8 mps 731 mmHg 81%
    09:00 +6°C° 0.1 mm 8 mps 732 mmHg 79%
    10:00 +6°C° 0.1 mm 8 mps 733 mmHg 77%
    11:00 +6°C° 0.1 mm 8 mps 734 mmHg 75%
    12:00 +6°C° 0 mm 8 mps 735 mmHg 74%
    13:00 +6°C° 0 mm 8 mps 735 mmHg 73%
    14:00 +6°C° 0 mm 7 mps 736 mmHg 73%
    15:00 +5°C° 0 mm 7 mps 737 mmHg 73%
    16:00 +5°C° 0 mm 6 mps 737 mmHg 72%
    17:00 +5°C° 0 mm 6 mps 738 mmHg 72%
    18:00 +5°C° 0 mm 6 mps 739 mmHg 73%
    19:00 +6°C° 0 mm 5 mps 739 mmHg 74%
    20:00 +5°C° 0 mm 5 mps 740 mmHg 74%
    21:00 +5°C° 0 mm 5 mps 740 mmHg 75%
    22:00 +5°C° 0 mm 5 mps 741 mmHg 76%
    23:00 +3°C° 0 mm 5 mps 741 mmHg 77%

    26 September, Wednesday

    Time Temperature Precipitation Wind Pressure Humidity
    00:00 +4°C° 0 mm 4 mps 742 mmHg 79%
    01:00 +3°C° 0 mm 4 mps 742 mmHg 81%
    02:00 +3°C° 0 mm 4 mps 743 mmHg 83%
    03:00 +1°C° 0 mm 4 mps 743 mmHg 83%
    04:00 +1°C° 0 mm 4 mps 744 mmHg 84%
    05:00 0°C° 0 mm 4 mps 744 mmHg 84%
    06:00 +1°C° 0 mm 4 mps 745 mmHg 79%
    07:00 +2°C° 0 mm 5 mps 746 mmHg 74%
    08:00 +2°C° 0 mm 5 mps 746 mmHg 69%
    09:00 +5°C° 0 mm 5 mps 746 mmHg 63%
    10:00 +6°C° 0 mm 5 mps 747 mmHg 58%
    11:00 +7°C° 0 mm 5 mps 747 mmHg 53%
    12:00 +8°C° 0 mm 4 mps 747 mmHg 51%
    13:00 +8°C° 0 mm 4 mps 747 mmHg 49%
    14:00 +10°C° 0 mm 4 mps 747 mmHg 47%
    15:00 +9°C° 0 mm 3 mps 747 mmHg 52%
    16:00 +8°C° 0 mm 3 mps 747 mmHg 57%
    17:00 +7°C° 0 mm 2 mps 747 mmHg 63%
    18:00 +6°C° 0 mm 2 mps 747 mmHg 67%
    19:00 +5°C° 0 mm 3 mps 747 mmHg 71%
    20:00 +4°C° 0 mm 3 mps 747 mmHg 75%
    21:00 +4°C° 0 mm 3 mps 747 mmHg 76%
    22:00 +4°C° 0 mm 4 mps 746 mmHg 77%
    23:00 +4°C° 0 mm 4 mps 746 mmHg 78%

    27 September, Thursday

    Time Temperature Precipitation Wind Pressure Humidity
    00:00 +3°C° 0 mm 5 mps 746 mmHg 74%
    01:00 +3°C° 0 mm 5 mps 745 mmHg 71%
    02:00 +3°C° 0 mm 6 mps 744 mmHg 68%
    03:00 +4°C° 0.2 mm 6 mps 744 mmHg 68%
    04:00 +4°C° 0.2 mm 7 mps 743 mmHg 69%
    05:00 +4°C° 0.2 mm 7 mps 742 mmHg 69%
    06:00 +4°C° 0.4 mm 8 mps 741 mmHg 71%
    07:00 +3°C° 0.4 mm 9 mps 741 mmHg 73%
    08:00 +3°C° 0.4 mm 9 mps 740 mmHg 75%
    09:00 +3°C° 0.3 mm 9 mps 740 mmHg 77%
    10:00 +5°C° 0.3 mm 9 mps 739 mmHg 78%
    11:00 +5°C° 0.3 mm 10 mps 739 mmHg 80%
    12:00 +5°C° 0.3 mm 9 mps 739 mmHg 82%
    13:00 +5°C° 0.3 mm 9 mps 738 mmHg 83%
    14:00 +6°C° 0.3 mm 8 mps 738 mmHg 85%
    15:00 +6°C° 0.1 mm 8 mps 738 mmHg 87%
    16:00 +6°C° 0.1 mm 7 mps 739 mmHg 88%
    17:00 +8°C° 0.1 mm 7 mps 739 mmHg 89%
    18:00 +8°C° 0 mm 6 mps 739 mmHg 90%
    19:00 +8°C° 0 mm 6 mps 739 mmHg 91%
    20:00 +8°C° 0 mm 5 mps 739 mmHg 92%
    21:00 +8°C° 0 mm 5 mps 739 mmHg 93%
    22:00 +8°C° 0 mm 5 mps 739 mmHg 93%
    23:00 +9°C° 0 mm 5 mps 739 mmHg 93%

    28 September, Friday

    Time Temperature Precipitation Wind Pressure Humidity
    00:00 +9°C° 0 mm 5 mps 739 mmHg 93%
    01:00 +9°C° 0 mm 6 mps 739 mmHg 93%
    02:00 +9°C° 0 mm 6 mps 739 mmHg 92%
    03:00 +10°C° 0.1 mm 6 mps 739 mmHg 92%
    04:00 +10°C° 0.1 mm 6 mps 739 mmHg 92%
    05:00 +10°C° 0.1 mm 6 mps 739 mmHg 92%
    06:00 +10°C° 0.1 mm 6 mps 738 mmHg 91%
    07:00 +11°C° 0.1 mm 7 mps 738 mmHg 90%
    08:00 +11°C° 0.1 mm 7 mps 738 mmHg 89%
    09:00 +11°C° 0 mm 7 mps 738 mmHg 87%
    10:00 +12°C° 0 mm 8 mps 738 mmHg 85%
    11:00 +12°C° 0 mm 8 mps 738 mmHg 84%
    12:00 +12°C° 0 mm 8 mps 737 mmHg 83%
    13:00 +12°C° 0 mm 8 mps 737 mmHg 82%
    14:00 +12°C° 0 mm 8 mps 737 mmHg 82%
    15:00 +13°C° 0.1 mm 8 mps 737 mmHg 83%
    16:00 +13°C° 0.1 mm 8 mps 736 mmHg 83%
    17:00 +14°C° 0.1 mm 7 mps 736 mmHg 84%
    18:00 +12°C° 0.2 mm 7 mps 737 mmHg 84%
    19:00 +13°C° 0.2 mm 6 mps 738 mmHg 85%
    20:00 +12°C° 0.2 mm 5 mps 738 mmHg 86%
    21:00 +10°C° 0 mm 5 mps 739 mmHg 87%
    22:00 +8°C° 0 mm 4 mps 739 mmHg 89%
    23:00 +7°C° 0 mm 3 mps 740 mmHg 90%
    Show more